User: anonymous   Login
Location: Unspecified
(0.0000°N, 0.0000°E)
Time: 01:06:14
(UTC+01:00)
Language:

DFH-1 - Orbit

View from above orbital plane
View from above orbital plane
View from above satellite
View from above satellite

Ground track
Ground track

The orbit data is extracted from the following two-line orbital elements,

1 04382U 70034A   21015.53839223  .00000056  00000-0  22214-4 0  9991
2 04382  68.4230 113.8951 1054497 312.4030  39.2308 13.08009147386424
Epoch (UTC): 15 January 2021 12:55:17
Eccentricity: 0.1054497
inclination: 68.4230°
perigee height: 428 km
apogee height: 2033 km
right ascension of ascending node: 113.8951°
argument of perigee: 312.4030°
revolutions per day: 13.08009147
mean anomaly at epoch: 39.2308°
orbit number at epoch: 38642

The dashed part of the orbit path shows where the satellite is in the earth's shadow,  

DLR